Tracking 23114 objects as of 18-May-2021
HD Live streaming from Space Station
objects crossing your sky now

SATCOM 3 DEB

Track SATCOM 3 DEB now!


NORAD ID: 32993
Int'l Code: 1979-101U
Perigee: 9,125.4 km
Apogee: 34,926.1 km
Inclination: 9.8 °
Period: 793.7 minutes
Semi major axis: 28396 km
RCS: 0.1617 m2 (medium)
Launch date: December 7, 1979
Source: United States (US)
Launch site: AIR FORCE EASTERN TEST RANGE (AFETR)

Note: This is SATELLITE DEBRIS
aabbcc
Your satellite tracking list
Your tracking list is empty




NASA's NSSDC Master Catalog

Two Line Element Set (TLE):
1 32993U 79101U   21138.03916622 -.00000077  00000-0  00000+0 0  9992
2 32993   9.7727 343.3543 4542904 336.3566 255.8026  1.81426474 95082
Source of the keplerian elements: AFSPC